Weather History for Casper, WY

Change the Weather History Date:

Thursday, November 21, 2013

  Actual Average Record
Temperature  
Mean Temperature 7 °F 30 °F  
Max Temperature 13 °F 41 °F 61 °F (1989)
Min Temperature 0 °F 19 °F -16 °F (1947)
Degree Days  
Heating Degree Days 58 35  
Month to date heating degree days 618 626  
Since 1 July heating degree days 1507 1525  
Cooling Degree Days 0 0  
Month to date cooling degree days 0 0  
Year to date cooling degree days 618 422  
Moisture  
Dew Point 3 °F    
Average Humidity 83    
Maximum Humidity 95    
Minimum Humidity 70    
Precipitation  
Precipitation 0.14 in 0.03 in 0.53 in (1983)
Month to date precipitation 0.24 0.58  
Year to date precipitation 13.94 11.85  
Snow  
Snow 2.30 in 0.40 in - ()
Month to date snowfall 3.6 7.2  
Since 1 July snowfall 24.8 16.4  
Since 1 September snowfall 24.8 16.4  
Snow Depth 3.00 in    
Sea Level Pressure  
Sea Level Pressure 30.45 in    
Wind  
Wind Speed 8 mph (North)    
Max Wind Speed 17 mph    
Max Gust Speed 24 mph    
Visibility 5 miles    
Events Fog , Snow    
T = Trace of Precipitation, MM = Missing Value Source: NWS Daily Summary

Daily Weather History Graph

Daily Weather History Graph

Search for Another Location

Airport:

Trip Planner

Search our weather history database for the weather conditions in past years. The results will help you decide how hot, cold, wet, or windy it might be!

Date:

Astronomy

Nov. 21, 2013 Rise Set
Actual Time 7:05 AM MST 4:37 PM MST
Civil Twilight 6:34 AM MST 5:08 PM MST
Nautical Twilight 6:00 AM MST 5:43 PM MST
Astronomical Twilight 5:26 AM MST 6:16 PM MST
Moon 8:17 PM MST 10:13 AM MST
Length of Visible Light 10h 33m
Length of Day
9h 31m
Waning Gibbous, 85% of the Moon is Illuminated
Nov 21
Waning Gibbous
Nov 25
Last Quarter
Dec 2
New
Dec 9
First Quarter
Dec 17
Full

Hourly Weather History & Observations

Time (MST) Temp. Windchill Dew Point Humidity Pressure Visibility Wind Dir Wind Speed Gust Speed Precip Events Conditions
12:02 AM 10.0 °F -0.9 °F 6.1 °F 84% 30.20 in 1.0 mi NE 6.9 mph - 0.00 in Snow Light Snow
12:08 AM 9.0 °F -4.2 °F 6.1 °F 88% 30.21 in 0.8 mi North 9.2 mph - 0.01 in Snow Light Snow
12:21 AM 9.0 °F -4.2 °F 5.0 °F 84% 30.20 in 1.5 mi NNE 9.2 mph - 0.02 in Snow Light Snow
12:33 AM 9.0 °F -5.1 °F 3.9 °F 80% 30.20 in 2.0 mi NNE 10.4 mph - 0.02 in Snow Light Snow
12:53 AM 8.1 °F -5.3 °F 3.9 °F 83% 30.29 in 3.0 mi NNE 9.2 mph - 0.02 in Snow Light Snow
1:49 AM 8.6 °F -4.7 °F 3.2 °F 79% 30.21 in 3.0 mi NNE 9.2 mph - 0.01 in Snow Light Snow
1:53 AM 8.1 °F -4.3 °F 3.0 °F 80% 30.29 in 3.0 mi NNE 8.1 mph - 0.01 in Snow Light Snow
2:08 AM 8.1 °F -5.3 °F 1.9 °F 76% 30.22 in 2.5 mi NNE 9.2 mph - 0.01 in Snow Light Snow
2:23 AM 7.0 °F -11.0 °F 1.9 °F 80% 30.22 in 1.5 mi North 16.1 mph - 0.01 in Snow Light Snow
2:38 AM 7.0 °F -8.3 °F 1.9 °F 80% 30.22 in 2.0 mi North 11.5 mph - 0.01 in Snow Light Snow
2:53 AM 7.0 °F -8.3 °F 1.9 °F 80% 30.29 in 2.5 mi North 11.5 mph - 0.01 in Snow Light Snow
3:23 AM 7.0 °F -8.3 °F 1.9 °F 80% 30.21 in 4.0 mi North 11.5 mph - 0.01 in Snow Light Snow
3:32 AM 7.0 °F -5.7 °F 1.9 °F 80% 30.21 in 5.0 mi North 8.1 mph - 0.01 in Snow Light Snow
3:53 AM 7.0 °F -8.3 °F 1.9 °F 80% 30.39 in 4.0 mi North 11.5 mph - 0.01 in Snow Light Snow
4:18 AM 7.0 °F -7.5 °F 1.9 °F 80% 30.21 in 5.0 mi NNE 10.4 mph - 0.01 in Snow Light Snow
4:53 AM 7.0 °F -9.1 °F 1.9 °F 80% 30.45 in 9.0 mi North 12.7 mph - 0.01 in   Overcast
5:53 AM 7.0 °F -9.1 °F 1.0 °F 77% 30.48 in 3.0 mi North 12.7 mph - 0.00 in Snow Light Snow
6:06 AM 7.0 °F -9.1 °F 1.9 °F 80% 30.26 in 3.0 mi North 12.7 mph - 0.00 in Snow Light Snow
6:22 AM 7.0 °F -9.1 °F 1.9 °F 80% 30.27 in 2.5 mi North 12.7 mph - 0.00 in Snow Light Snow
6:53 AM 7.0 °F -8.3 °F 3.0 °F 84% 30.51 in 1.5 mi NNE 11.5 mph - 0.00 in Snow Light Snow
7:07 AM 7.0 °F -7.5 °F 3.0 °F 84% 30.28 in 0.8 mi NNE 10.4 mph - 0.01 in Snow Light Snow
7:16 AM 6.1 °F -9.5 °F 3.0 °F 87% 30.29 in 0.5 mi NNE 11.5 mph - 0.03 in Fog , Snow Snow
7:34 AM 7.0 °F -7.5 °F 3.0 °F 84% 30.30 in 1.2 mi North 10.4 mph - 0.05 in Snow Light Snow
7:53 AM 7.0 °F -6.6 °F 3.0 °F 84% 30.55 in 1.0 mi NNE 9.2 mph - 0.06 in Snow Light Snow
8:04 AM 7.0 °F -6.6 °F 3.0 °F 84% 30.31 in 1.5 mi NNE 9.2 mph - 0.00 in Snow Light Snow
8:53 AM 8.1 °F -5.3 °F 3.0 °F 80% 30.58 in 1.0 mi North 9.2 mph - 0.01 in Snow Light Snow
9:00 AM 8.1 °F - 3.0 °F 80% 30.34 in 2.5 mi North - - 0.01 in Snow Light Snow
9:07 AM 8.1 °F -5.3 °F 3.0 °F 80% 30.33 in 3.0 mi North 9.2 mph - 0.01 in Snow Light Snow
9:15 AM 8.1 °F -5.3 °F 3.0 °F 80% 30.33 in 2.5 mi North 9.2 mph - 0.01 in Snow Light Snow
9:37 AM 9.0 °F -4.2 °F 3.0 °F 77% 30.34 in 3.0 mi North 9.2 mph - 0.01 in Snow Light Snow
9:45 AM 9.0 °F -4.2 °F 3.9 °F 80% 30.35 in 3.0 mi North 9.2 mph - 0.01 in Snow Light Snow
9:53 AM 9.0 °F -4.2 °F 3.0 °F 77% 30.60 in 3.0 mi North 9.2 mph - 0.01 in Snow Light Snow
10:53 AM 10.0 °F -1.9 °F 3.0 °F 73% 30.62 in 7.0 mi North 8.1 mph - 0.00 in Snow Light Snow
11:53 AM 10.9 °F 1.4 °F 3.9 °F 73% 30.61 in 9.0 mi North 5.8 mph - 0.00 in   Overcast
12:12 PM 10.9 °F 1.4 °F 3.9 °F 73% 30.37 in 10.0 mi NNW 5.8 mph - N/A   Overcast
12:53 PM 12.0 °F 4.1 °F 5.0 °F 73% 30.62 in 6.0 mi NW 4.6 mph - N/A   Haze
1:19 PM 12.0 °F - 5.0 °F 73% 30.38 in 2.0 mi North - - 0.00 in Snow Light Snow
1:37 PM 12.0 °F 5.9 °F 5.0 °F 73% 30.38 in 5.0 mi NNW 3.5 mph - 0.00 in   Haze
1:44 PM 12.9 °F - 5.0 °F 71% 30.39 in 7.0 mi North - - 0.00 in   Overcast
1:51 PM 12.2 °F - 6.8 °F 79% 30.39 in 9.0 mi North - - 0.00 in   Overcast
1:53 PM 12.9 °F 6.9 °F 6.1 °F 74% 30.63 in 10.0 mi North 3.5 mph - 0.00 in   Overcast
2:53 PM 12.9 °F - 5.0 °F 71% 30.66 in 10.0 mi Calm Calm - N/A   Overcast
3:53 PM 12.0 °F 5.9 °F 5.0 °F 73% 30.69 in 10.0 mi WNW 3.5 mph - N/A   Clear
4:53 PM 8.1 °F -2.0 °F 3.9 °F 83% 30.72 in 10.0 mi West 5.8 mph - N/A   Clear
5:53 PM 6.1 °F -2.8 °F 3.0 °F 87% 30.76 in 10.0 mi West 4.6 mph - N/A   Clear
6:53 PM 1.9 °F -10.6 °F -0.9 °F 88% 30.78 in 10.0 mi WSW 6.9 mph - N/A   Clear
7:53 PM 6.1 °F -7.8 °F 1.0 °F 80% 30.76 in 10.0 mi SW 9.2 mph - N/A   Clear
8:53 PM 3.9 °F - -0.9 °F 80% 30.76 in 10.0 mi North - - N/A   Clear
9:53 PM 1.9 °F -12.9 °F -2.0 °F 83% 30.77 in 10.0 mi WSW 9.2 mph - N/A   Clear
10:53 PM 1.0 °F -14.9 °F -4.0 °F 79% 30.79 in 10.0 mi West 10.4 mph - N/A   Clear
11:53 PM -0.0 °F -15.3 °F -4.0 °F 83% 30.79 in 10.0 mi West 9.2 mph - N/A   Clear